[[{"header":{"parameterUnit":"m.s-1","parameterCategory":1,"la1":30.2991,"la2":30.254,"lo1":-89.0895,"lo2":-89.0444,"dx":0.0017,"dy":0.0017,"nx":28,"ny":28,"refTime":"2023-01-02T15:00:00:Z","depth":0,"parameterNumber":2,"parameterNumberName":"U-component_of_WINDS"},"data":[0,0,0,0,0,0,0,0,0,0,0,0,0,0,0,0,0,0,0,0,0,0,0,0,0,0,0,0,0,0,0,0,0,0,0,0,0,0,0,0,0,0,0,0,0,0,0,0,0,0,0,0,0,0,0,0,0,0,-3.0572,-3.0573,0,-3.0672,-3.0674,-3.0675,-3.0657,-3.0655,-3.0654,-3.0652,-3.0753,-3.0758,-3.0762,0,0,0,0,0,0,0,0,0,0,0,0,0,-3.0363,-3.0366,-3.0572,-3.0573,-3.0574,-3.0672,-3.0674,-3.0675,-3.0657,-3.0655,-3.0653,-3.0651,-3.0752,-3.0757,-3.0762,0,0,0,0,0,0,0,0,0,0,0,0,0,-3.0457,-3.0368,-3.0571,-3.0577,-3.0579,-3.0672,-3.0674,-3.0675,-3.0658,-3.0655,-3.0652,-3.065,-3.075,-3.0757,-3.0763,-3.0856,0,0,-3.0783,-3.0786,0,0,0,0,0,0,0,0,-3.0452,-3.0465,-3.0575,-3.0577,-3.0579,-3.0649,-3.0637,-3.0736,-3.0658,-3.0628,-3.0652,-3.0649,-3.0721,-3.073,-3.0754,-3.0861,-3.0865,-3.0784,-3.0788,-3.079,-3.0792,0,0,0,0,0,0,0,-3.0445,-3.0461,-3.0611,-3.0577,-3.0579,-3.0574,-3.0585,-3.0656,-3.0688,-3.063,-3.0629,-3.0641,-3.0721,-3.0748,-3.0757,-3.0867,-3.0783,-3.0789,-3.0793,-3.0796,-3.1054,-3.1057,0,0,0,0,0,0,-3.0437,-3.0455,-3.0608,-3.0614,-3.0508,-3.058,-3.0592,-3.0629,-3.0687,-3.0693,-3.0644,-3.064,-3.0738,-3.0749,-3.076,-3.0872,-3.079,-3.0796,-3.08,-3.1051,-3.1055,-3.1058,0,0,0,0,0,0,-3.0433,-3.0451,-3.0604,-3.0535,-3.0554,-3.0587,-3.0629,-3.0633,-3.0659,-3.0697,-3.0703,-3.0665,-3.0737,-3.0751,-3.0832,-3.0875,-3.0799,-3.0805,-3.1048,-3.1052,-3.1056,-3.1097,0,0,0,0,0,0,-3.0427,-3.045,-3.0486,-3.0536,-3.0558,-3.0675,-3.0632,-3.0637,-3.0671,-3.0668,-3.0719,-3.0725,-3.0736,-3.0823,-3.0839,-3.0883,-3.081,-3.1044,-3.105,-3.1055,-3.1092,-3.1102,-3.1111,0,0,0,0,0,-3.042,-3.0493,-3.0488,-3.0506,-3.0603,-3.0678,-3.069,-3.0702,-3.0675,-3.0711,-3.0735,-3.0723,-3.0868,-3.0831,-3.0849,-3.0896,-3.1041,-3.1048,-3.1054,-3.1088,-3.11,-3.1111,0,0,0,0,0,0,-3.0447,-3.05,-3.0494,-3.0586,-3.0628,-3.0675,-3.0721,-3.0715,-3.0765,-3.0759,-3.0771,-3.0783,-3.0865,-3.0889,-3.0847,-3.0989,-3.0951,-3.0961,-3.097,-3.0982,-3.0991,-3.0983,-3.0816,0,0,0,0,0,-3.0464,-3.052,-3.0563,-3.064,-3.0661,-3.0688,-3.0721,-3.0726,-3.0769,-3.0786,-3.0817,-3.0858,-3.0913,-3.0949,-3.1002,-3.1096,-3.1106,-3.1137,-3.1146,-3.1154,-3.1162,-3.1212,-3.1226,-3.108,-3.108,-3.1079,0,0,-3.0499,-3.0535,-3.057,-3.0647,-3.0679,-3.0737,-3.0703,-3.0765,-3.0808,-3.0796,-3.0874,-3.0898,-3.0945,-3.1033,-3.1073,-3.1055,-3.1205,-3.1162,-3.1168,-3.1172,-3.122,-3.1234,-3.1246,-3.1084,-3.1083,-3.1083,0,0,-3.0592,-3.0626,-3.0693,-3.0726,-3.0777,-3.0794,-3.081,-3.0858,-3.0873,-3.0953,-3.0944,-3.0995,-3.109,-3.1124,-3.1153,-3.126,-3.125,-3.1277,-3.1326,-3.1374,-3.1386,-3.1396,-3.1432,-3.1445,-3.1285,-3.1285,-3.1285,0,-3.0629,-3.0716,-3.0728,-3.0791,-3.0825,-3.0818,-3.0885,-3.0917,-3.0982,-3.1005,-3.0984,-3.1103,-3.1134,-3.1229,-3.1255,-3.128,-3.1298,-3.127,-3.1383,-3.1394,-3.1403,-3.1438,-3.1452,-3.1288,-3.1288,-3.1287,-3.1287,0,-3.0758,-3.0819,-3.0867,-3.093,-3.0969,-3.1034,-3.1055,-3.1094,-3.1096,-3.1115,-3.1195,-3.1233,-3.1293,-3.1316,-3.1319,-3.1411,-3.1398,-3.1381,-3.1343,-3.142,-3.1453,-3.1466,-3.1292,-3.1291,-3.129,-3.129,0,0,-3.087,-3.0939,-3.0957,-3.0985,-3.104,-3.1086,-3.1151,-3.121,-3.1242,-3.1287,-3.134,-3.1421,-3.1405,-3.1438,-3.1445,-3.1488,-3.1568,-3.1465,-3.1466,-3.1481,-3.167,-3.1681,-3.1697,-3.1562,-3.1565,-3.1567,-3.1665,0,-3.0967,-3.1082,-3.1094,-3.1196,-3.1251,-3.1245,-3.1301,-3.1341,-3.136,-3.141,-3.1431,-3.1487,-3.1463,-3.1483,-3.1525,-3.1549,-3.1605,-3.1542,-3.1611,-3.1613,-3.1597,-3.1714,-3.1727,-3.1818,-3.1678,-3.1681,-3.1682,0,-3.1096,-3.1144,-3.1252,-3.1298,-3.1322,-3.1372,-3.1427,-3.1474,-3.1519,-3.153,-3.1568,-3.1568,-3.1634,-3.1595,-3.1685,-3.1642,-3.1671,-3.1687,-3.1691,-3.1696,-3.1651,-3.1721,-3.1847,-3.186,-3.1703,-3.1701,-3.17,0,-3.1164,-3.1257,-3.1333,-3.1357,-3.1414,-3.1449,-3.1475,-3.1517,-3.1551,-3.1599,-3.1621,-3.1676,-3.1705,-3.1747,-3.1762,-3.1733,-3.1851,-3.1814,-3.1861,-3.1861,-3.1885,-3.1883,-3.2016,-3.1907,-3.1906,-3.1906,-3.1906,0,-3.127,-3.1336,-3.1364,-3.1411,-3.1484,-3.1498,-3.1569,-3.1593,-3.163,-3.168,-3.1679,-3.1726,-3.1744,-3.1794,-3.1807,-3.1878,-3.1892,-3.1902,-3.1904,-3.1901,-3.19,-3.1919,-3.1912,-3.191,-3.1909,-3.1908,-3.1908,0,-3.1359,-3.1381,-3.1463,-3.151,-3.1524,-3.1575,-3.1615,-3.1659,-3.1679,-3.1742,-3.1758,-3.1788,-3.1846,-3.1866,-3.1937,-3.1946,-3.2029,-3.2026,-3.2014,-3.2013,-3.2059,-3.2054,-3.2207,-3.2227,-3.2107,-3.2108,-3.2109,0,-3.1424,-3.1474,-3.1527,-3.156,-3.1587,-3.1642,-3.1677,-3.1693,-3.1729,-3.1783,-3.1821,-3.1879,-3.1926,-3.202,-3.2048,-3.2102,-3.2099,-3.215,-3.2107,-3.2102,-3.2098,-3.2094,-3.2098,-3.2157,-3.2158,-3.2159,-3.216,0,-3.1537,-3.1545,-3.1596,-3.1651,-3.1693,-3.1736,-3.1779,-3.1806,-3.1828,-3.1869,-3.1929,-3.1966,-3.2039,-3.2096,-3.2151,-3.2176,-3.2171,-3.2173,-3.2187,-3.2183,-3.2173,-3.2177,-3.2033,-3.2169,-3.2168,-3.2168,-3.2167,-3.2167,-3.1614,-3.1658,-3.1702,-3.1758,-3.1792,-3.1831,-3.1875,-3.19,-3.195,-3.2011,-3.2017,-3.2081,-3.2124,-3.2198,-3.2226,-3.2275,-3.2261,-3.2281,-3.2286,-3.229,-3.2293,-3.2167,-3.2286,-3.2286,-3.2285,-3.2285,-3.2285,0,-3.1725,-3.1753,-3.1805,-3.1864,-3.1908,-3.1901,-3.1948,-3.1985,-3.2042,-3.2082,-3.2129,-3.2197,-3.2253,-3.2285,-3.234,-3.2374,-3.2373,-3.2388,-3.2384,-3.239,-3.2303,-3.2285,-3.2387,-3.2387,-3.2387,-3.2387,-3.2387,-3.2387,-3.1788,-3.1861,-3.1875,-3.1965,-3.1992,-3.2055,-3.2082,-3.2118,-3.215,-3.2227,-3.2273,-3.2294,-3.2331,-3.2389,-3.2439,-3.2447,-3.2467,-3.2483,-3.2489,-3.2407,-3.2396,-3.2386,-3.2369,-3.2487,-3.2488,-3.2571,-3.2572,-3.2573]},{"header":{"parameterUnit":"m.s-1","parameterCategory":1,"la1":30.2991,"la2":30.254,"lo1":-89.0895,"lo2":-89.0444,"dx":0.0017,"dy":0.0017,"nx":28,"ny":28,"refTime":"2023-01-02T15:00:00:Z","depth":0,"parameterNumber":3,"parameterNumberName":"V-component_of_WINDS"},"data":[0,0,0,0,0,0,0,0,0,0,0,0,0,0,0,0,0,0,0,0,0,0,0,0,0,0,0,0,0,0,0,0,0,0,0,0,0,0,0,0,0,0,0,0,0,0,0,0,0,0,0,0,0,0,0,0,0,0,1.9616,1.9617,0,1.975,1.9751,1.9753,1.9815,1.9815,1.9815,1.9814,1.9951,1.9954,1.9958,0,0,0,0,0,0,0,0,0,0,0,0,0,1.9415,1.9418,1.9616,1.9618,1.9619,1.975,1.9751,1.9753,1.9815,1.9815,1.9815,1.9814,1.9949,1.9954,1.9958,0,0,0,0,0,0,0,0,0,0,0,0,0,1.9521,1.942,1.9616,1.9666,1.9671,1.9749,1.9751,1.9754,1.9815,1.9815,1.9814,1.9814,1.9948,1.9953,1.9959,1.9996,0,0,1.9976,1.9978,0,0,0,0,0,0,0,0,1.9515,1.9528,1.9657,1.9662,1.9669,1.9765,1.9731,1.9835,1.9815,1.976,1.9814,1.9814,1.9889,1.9899,1.9925,2.0003,2.0009,1.9976,1.998,1.9982,1.9984,0,0,0,0,0,0,0,1.9507,1.9523,1.9669,1.9658,1.9666,1.9682,1.9697,1.9751,1.9824,1.9765,1.977,1.9785,1.9892,1.9919,1.9929,2.0011,1.9976,1.9981,1.9985,1.9987,2.013,2.0131,0,0,0,0,0,0,1.9492,1.9516,1.9665,1.9673,1.959,1.9686,1.9702,1.9735,1.9824,1.9837,1.9785,1.9787,1.991,1.9922,1.9934,1.9986,1.9982,1.9987,1.9991,2.013,2.013,2.0131,0,0,0,0,0,0,1.9487,1.9504,1.9659,1.9596,1.9617,1.9689,1.9725,1.9737,1.9764,1.9839,1.9852,1.9799,1.991,1.9926,1.9981,1.9992,1.999,1.9995,2.0129,2.013,2.013,2.009,0,0,0,0,0,0,1.9481,1.9502,1.9517,1.9596,1.962,1.9704,1.9726,1.974,1.9774,1.9778,1.9855,1.9868,1.9911,1.9973,1.9987,1.9999,1.9999,2.0129,2.0129,2.013,2.009,2.0089,2.0088,0,0,0,0,0,1.9474,1.9499,1.9517,1.9535,1.964,1.9704,1.9718,1.9768,1.9774,1.979,1.9839,1.9865,1.9988,1.9978,1.9994,2.0009,2.0128,2.0129,2.013,2.0091,2.0089,2.0088,0,0,0,0,0,0,1.9418,1.951,1.9531,1.9583,1.9636,1.9715,1.9736,1.9764,1.9816,1.9818,1.9877,1.9894,1.9945,1.9982,1.9969,2.0052,2.0061,2.0065,2.0025,2.0024,2.0023,2.0013,2.0004,0,0,0,0,0,1.9412,1.9457,1.9535,1.9573,1.9598,1.9663,1.9693,1.9727,1.9784,1.9806,1.9858,1.9912,1.9964,1.9996,2.0046,2.0096,2.0115,2.0114,2.0113,2.0111,2.0115,2.0147,2.0148,2.0134,2.0134,2.0134,0,0,1.94,1.9455,1.948,1.9563,1.9608,1.9654,1.9681,1.9727,1.9763,1.9813,1.987,1.991,1.9974,2.0028,2.0054,2.0061,2.0123,2.0113,2.0111,2.0115,2.0148,2.0149,2.015,2.0135,2.0135,2.0135,0,0,1.9401,1.9447,1.9485,1.953,1.9598,1.9641,1.965,1.9726,1.9755,1.9813,1.9853,1.9896,1.9982,2.0027,2.0061,2.0083,2.0111,2.0098,2.0091,2.0121,2.0122,2.0124,2.0134,2.0137,2.0101,2.0101,2.0101,0,1.9377,1.9447,1.9501,1.9547,1.9583,1.9632,1.9672,1.9713,1.9794,1.9819,1.9825,1.9936,1.9983,2.0049,2.0055,2.008,2.0094,2.009,2.0118,2.012,2.0122,2.0132,2.0136,2.0099,2.0099,2.0099,2.0099,0,1.9416,1.9464,1.9487,1.9566,1.9605,1.9647,1.9708,1.9741,1.9773,1.9815,1.9875,1.9933,1.9998,2.0016,2.0046,2.0088,2.0091,2.0106,2.0117,2.0121,2.0131,2.0136,2.0096,2.0097,2.0097,2.0098,0,0,1.9384,1.9494,1.9502,1.9539,1.962,1.9659,1.9704,1.9769,1.9798,1.9852,1.9893,1.9967,1.9983,2.0022,2.0058,2.0085,2.0102,2.0098,2.0101,2.0099,2.0154,2.0143,2.0146,2.012,2.0121,2.0122,2.015,0,1.9398,1.9482,1.9533,1.9597,1.9645,1.9693,1.9734,1.9788,1.983,1.9876,1.9922,1.9974,1.9991,2.0015,2.0044,2.0093,2.0114,2.0092,2.016,2.0162,2.0144,2.0152,2.0139,2.0162,2.0154,2.0155,2.0155,0,1.9425,1.948,1.955,1.9628,1.965,1.9685,1.975,1.9793,1.9857,1.9886,1.993,1.9967,2.0019,2.0025,2.0099,2.0083,2.0114,2.0143,2.0145,2.0154,2.016,2.0163,2.0171,2.0175,2.0162,2.0161,2.0161,0,1.9398,1.949,1.9544,1.9574,1.9666,1.969,1.973,1.9793,1.983,1.9887,1.9912,1.9973,2.0007,2.0054,2.0108,2.0107,2.0177,2.0186,2.0203,2.0202,2.0216,2.0215,2.0231,2.0233,2.0233,2.0233,2.0233,0,1.9408,1.9449,1.9534,1.9567,1.9615,1.9674,1.972,1.9764,1.982,1.9864,1.9909,1.9949,2.0016,2.0065,2.0107,2.0163,2.0177,2.0203,2.0214,2.02,2.0197,2.0222,2.0222,2.0234,2.0234,2.0234,2.0234,0,1.9386,1.9444,1.9507,1.9589,1.9611,1.9643,1.9715,1.975,1.9795,1.985,1.9866,1.9937,1.9997,2.0055,2.0135,2.0163,2.022,2.0233,2.0199,2.0205,2.022,2.0218,2.0253,2.0262,2.0257,2.0257,2.0256,0,1.9389,1.9423,1.951,1.9543,1.9582,1.9634,1.9672,1.9732,1.977,1.9847,1.9873,1.9937,1.9991,2.0086,2.0144,2.0207,2.0223,2.0231,2.0232,2.0218,2.0226,2.0224,2.0229,2.023,2.023,2.0229,2.0229,0,1.939,1.9418,1.9472,1.9537,1.9582,1.9636,1.9691,1.9715,1.9786,1.9827,1.989,1.9932,2.0016,2.0079,2.0149,2.019,2.0222,2.0228,2.0236,2.0223,2.0202,2.0216,2.0197,2.0227,2.0228,2.0228,2.0228,2.0228,1.9383,1.9416,1.9483,1.9543,1.9591,1.9642,1.9681,1.9732,1.9785,1.9858,1.989,1.9955,2.002,2.0117,2.0158,2.021,2.0218,2.0228,2.0231,2.0233,2.0231,2.0193,2.0223,2.0223,2.0223,2.0223,2.0223,0,1.9388,1.9435,1.9489,1.9566,1.9613,1.964,1.9704,1.9742,1.9798,1.9856,1.991,1.9984,2.0046,2.0111,2.0178,2.0207,2.0223,2.0222,2.0222,2.0231,2.0219,2.0207,2.0208,2.0208,2.0208,2.0208,2.0208,2.0208,1.9396,1.9455,1.9491,1.9575,1.9621,1.9685,1.9719,1.9768,1.9816,1.9896,1.9949,1.9991,2.0053,2.0126,2.0185,2.0203,2.0226,2.0221,2.0243,2.0231,2.0232,2.0232,2.0221,2.0225,2.0225,2.0251,2.0251,2.0251]}]]